カタログに戻る

STARLINK-30766

運用中通信VLEO
NORAD 58125·PAYLOAD·🇺🇸 United States

打ち上げ Oct 22, 2023 から Cape Canaveral Space Force Station

Loading…

次のパス (今後24時間)

TLE

最新Source: CelesTrak SupGP

元期: Sep 15, 2026, 01:48 UTC

1 58125C 23162H   26258.07548611  .00063318  00000+0  22927-2 0  2582
2 58125  43.0000 139.7721 0001415 268.4620 266.2885 15.27556327    10

AllMySatでSTARLINK-30766をリアルタイム追跡

Download on the App Store